Hourly Weather Roundup
Issued by NWS Central Illinois

Home | Current Version | Previous Version | Text Only | Print | Product List | Glossary On
Versions: 1 2 3 4 5 6 7 8 9 10 11 12 13 14 15 16 17 18 19 20 21 22 23 24 25 26 27 28 29 30 31 32 33 34 35 36 37 38 39 40 41 42 43 44 45 46 47 48 49 50
000
NZUS43 KILX 152010
HWRILX

AREA WEATHER ROUNDUP
NATIONAL WEATHER SERVICE, LINCOLN IL
300 PM CDT MON SEP 15 2014


CITY           SKY/WX    TMP DP  RH WIND       PRES   REMARKS
BLOOMINGTON    CLOUDY    57  55  93 SW7       30.06F
CHAMPAIGN      CLOUDY    58  58 100 S8        30.04F
DECATUR        LGT RAIN  58  58 100 S8        30.05F FOG
FLORA          PTSUNNY   70  57  63 E5        30.08F
GALESBURG      CLOUDY    60  58  91 N5        30.08S
JACKSONVILLE   CLOUDY    63  61  96 CALM      30.08R FOG
LACON          DRIZZLE   57  55  94 CALM      30.06R
LAWRENCEVILLE  CLOUDY    69  56  62 E13       30.11F
LITCHFIELD     CLOUDY    60  56  88 SE10      30.05F
$$


CITY           SKY/WX    TMP DP  RH WIND       PRES   REMARKS
LINCOLN        TSTM      58  56  94 S8        30.04R
MACOMB         CLOUDY    60  58  95 NW7       30.09S
MATTOON        CLOUDY    58  55  90 S12       30.05S
MT CARMEL AP   CLOUDY    73  54  49 E13       30.09F
OLNEY-NOBLE AP CLOUDY    68  55  64 NE10      30.09F
PARIS          CLOUDY    57  56  97 S9        30.05R
PEORIA         LGT RAIN  59  56  89 SW5       30.08R FOG
PONTIAC        DRIZZLE   59  57  94 SE3       30.06F
RANTOUL        CLOUDY    60  55  83 S3        30.07F
ROBINSON       TSTM      62  59  92 S15       30.09F
SPRINGFIELD    LGT RAIN  60  58  92 CALM      30.06S FOG
TAYLORVILLE    DRIZZLE   57  55  94 SE6       30.05S
$$

...REGIONAL REPORTS...


CITY           SKY/WX    TMP DP  RH WIND       PRES   REMARKS
CHICAGO O`HARE CLOUDY    61  50  67 SW7       30.08S
KANKAKEE       HVY RAIN  56  55  94 CALM      30.09S
MOLINE         PTSUNNY   68  55  63 NE6       30.06F
MOUNT VERNON   CLOUDY    73  61  64 S9        30.07F
PITTSFIELD     DRIZZLE   64  62  92 NW5       30.07S
QUINCY         CLOUDY    62  59  90 NW12      30.07R
ROCKFORD       LGT RAIN  57  53  86 NW8       30.13R
$$


CITY           SKY/WX    TMP DP  RH WIND       PRES   REMARKS
BURLINGTON     PTSUNNY   65  58  78 NW9       30.07F
CEDAR RAPIDS   CLOUDY    56  51  84 N16G24    30.14R
DES MOINES     PTSUNNY   64  51  62 N12       30.18S
KIRKSVILLE     CLOUDY    64  59  83 N10       30.11R
OTTUMWA        CLOUDY    62  53  72 N15       30.12R
ST LOUIS       CLOUDY    76  65  68 W13       30.04F
$$


CITY           SKY/WX    TMP DP  RH WIND       PRES   REMARKS
TERRE HAUTE    LGT RAIN  60  55  83 S10G20    30.08F
EVANSVILLE     PTSUNNY   76  54  46 SE5       30.10F
INDIANAPOLIS   TSTM      56  53  90 SW14      30.11F FOG
LAFAYETTE      CLOUDY    57  54  89 E3        30.07F
MADISON        LGT RAIN  53  50  89 NW7       30.14F
MILWAUKEE      CLOUDY    55  51  86 N12       30.11R
$$





USA.gov is the U.S. government's official web portal to all federal, state and local government web resources and services.